Tracking 29606 objects as of 19-Sep-2024
HD Live streaming from Space Station
objects crossing your sky now

COSMOS 1375 DEB

Track COSMOS 1375 DEB now!
10-day predictions


NORAD ID: 16383
Int'l Code: 1982-055X
Perigee: 948.1 km
Apogee: 1,027.0 km
Inclination: 65.8 °
Period: 104.7 minutes
Semi major axis: 7358 km
RCS: 0.1937 m2 (medium)
Launch date: June 6, 1982
Source: Commonwealth of Independent States (former USSR) (CIS)
Launch site: PLESETSK MISSILE AND SPACE COMPLEX (PKMTR)

Note: This is SATELLITE DEBRIS
Your satellite tracking list
Your tracking list is empty




NASA's NSSDC Master Catalog

Two Line Element Set (TLE):
1 16383U 82055X   24262.52014616  .00000876  00000-0  98518-3 0  9997
2 16383  65.8299  55.2664 0053572 305.1455 115.4961 13.75357326947532
Source of the keplerian elements: AFSPC